QPF
0.03 0.01 0.01 0.02 0.02 0.03 0.03 0.03 0.04 0.04 0.03 0.03 0.02 0.02 0.02 0.02 0.03 0.04 0.04 0.04 0.04 0.03 0.04 0.03 0.04 0.04 0.02 0.02 0.03 0.01 0.01 0.02 0.03 0.05 0.05 0.03 0.02 0.03 0.04 0.05 0.06 0.04 0.04
0.03 0.01 0.01 0.02 0.02 0.02 0.02 0.03 0.03 0.03 0.03 0.03 0.03 0.02 0.02 0.03 0.03 0.03 0.03 0.04 0.04 0.03 0.03 0.03 0.03 0.03 0.02 0.02 0.02 0.01 0.01 0.02 0.02 0.02 0.02 0.02 0.02 0.02 0.02 0.03 0.04 0.05 0.05
0.02 0.01 0.01 0.02 0.02 0.02 0.02 0.02 0.02 0.03 0.03 0.03 0.03 0.03 0.03 0.04 0.03 0.02 0.02 0.04 0.04 0.03 0.03 0.03 0.02 0.03 0.02 0.02 0.01 0.02 0.02 0.02 0.02 0.01 0.01 0.02 0.01 0.02 0.02 0.03 0.04 0.05 0.06
0.01 0.01 0.01 0.02 0.02 0.02 0.02 0.02 0.02 0.02 0.03 0.04 0.04 0.03 0.03 0.03 0.02 0.02 0.02 0.04 0.05 0.04 0.03 0.03 0.02 0.02 0.02 0.02 0.01 0.01 0.01 0.01 0.01 0.02 0.03 0.04 0.03 0.02 0.02 0.03 0.05 0.05 0.06
0.02 0.02 0.02 0.02 0.02 0.02 0.02 0.02 0.02 0.03 0.03 0.03 0.03 0.03 0.04 0.03 0.02 0.02 0.02 0.02 0.03 0.04 0.04 0.03 0.03 0.02 0.02 0.02 0.01 0.01 0.01 0.01 0.01 0.02 0.03 0.04 0.06 0.05 0.02 0.03 0.04 0.03 0.03
0.02 0.03 0.02 0.01 0.02 0.02 0.03 0.03 0.03 0.04 0.03 0.03 0.03 0.03 0.03 0.02 0.03 0.03 0.02 0.01 0.02 0.03 0.04 0.04 0.03 0.03 0.02 0.01 0.02 0.02 0.01 0.01 0.01 0.03 0.03 0.03 0.05 0.04 0.03 0.04 0.04 0.04 0.03
0.01 0.03 0.02 0.02 0.02 0.02 0.03 0.03 0.03 0.04 0.03 0.03 0.03 0.03 0.03 0.03 0.03 0.02 0.01 0.01 0.02 0.03 0.03 0.04 0.04 0.03 0.02 0.02 0.02 0.02 0.01 0.01 0.02 0.03 0.04 0.03 0.03 0.02 0.03 0.03 0.03 0.04 0.04
0.01 0.02 0.02 0.03 0.02 0.02 0.03 0.03 0.03 0.04 0.04 0.02 0.02 0.03 0.04 0.03 0.02 0.01 0.01 0.01 0.01 0.03 0.04 0.04 0.03 0.03 0.02 0.02 0.02 0.02 0.01 0.01 0.02 0.03 0.03 0.03 0.02 0.02 0.03 0.03 0.03 0.03 0.04
0.01 0.02 0.03 0.04 0.03 0.03 0.02 0.02 0.02 0.02 0.02 0.02 0.02 0.02 0.04 0.04 0.03 0.01 0.01 0.01 0.02 0.03 0.05 0.04 0.03 0.02 0.02 0.02 0.01 0.01 0.01 0.00 0.01 0.01 0.02 0.02 0.02 0.04 0.05 0.04 0.03 0.04 0.04
0.02 0.02 0.03 0.03 0.03 0.02 0.01 0.01 0.01 0.01 0.01 0.01 0.02 0.02 0.02 0.03 0.03 0.02 0.01 0.01 0.02 0.03 0.05 0.03 0.03 0.02 0.01 0.01 0.01 0.01 0.01 0.01 0.00 0.01 0.01 0.02 0.03 0.04 0.04 0.04 0.04 0.04 0.05
0.02 0.02 0.02 0.02 0.02 0.02 0.02 0.01 0.00 0.00 0.00 0.01 0.01 0.01 0.01 0.02 0.03 0.04 0.03 0.01 0.01 0.03 0.04 0.02 0.02 0.02 0.01 0.01 0.01 0.01 0.01 0.01 0.01 0.01 0.01 0.02 0.04 0.03 0.03 0.03 0.05 0.04 0.04
0.02 0.02 0.02 0.02 0.02 0.02 0.02 0.02 0.02 0.01 0.01 0.01 0.01 0.01 0.01 0.03 0.05 0.06 0.04 0.03 0.02 0.03 0.03 0.03 0.03 0.02 0.01 0.01 0.01 0.01 0.01 0.01 0.01 0.01 0.01 0.02 0.03 0.04 0.04 0.03 0.05 0.06 0.04
0.01 0.02 0.02 0.02 0.02 0.02 0.02 0.02 0.02 0.02 0.02 0.01 0.02 0.02 0.02 0.03 0.04 0.04 0.05 0.05 0.04 0.04 0.04 0.05 0.03 0.01 0.02 0.02 0.03 0.02 0.01 0.01 0.02 0.02 0.02 0.03 0.04 0.04 0.05 0.04 0.05 0.05 0.04
0.02 0.03 0.03 0.03 0.02 0.02 0.02 0.02 0.03 0.03 0.03 0.02 0.02 0.03 0.03 0.02 0.03 0.03 0.03 0.05 0.05 0.04 0.05 0.07 0.05 0.02 0.02 0.02 0.03 0.04 0.02 0.01 0.02 0.02 0.02 0.02 0.03 0.04 0.05 0.04 0.04 0.04 0.04
0.02 0.04 0.05 0.06 0.05 0.04 0.03 0.02 0.02 0.03 0.04 0.03 0.03 0.04 0.04 0.03 0.03 0.03 0.02 0.03 0.05 0.06 0.06 0.06 0.07 0.04 0.03 0.02 0.02 0.03 0.03 0.02 0.01 0.02 0.02 0.01 0.01 0.03 0.03 0.04 0.04 0.04 0.04
0.01 0.02 0.03 0.05 0.06 0.06 0.05 0.04 0.03 0.03 0.04 0.05 0.04 0.04 0.04 0.03 0.02 0.02 0.03 0.02 0.03 0.05 0.07 0.07 0.09 0.10 0.07 0.04 0.03 0.02 0.02 0.02 0.02 0.02 0.02 0.01 0.01 0.01 0.02 0.03 0.04 0.04 0.04
0.01 0.01 0.02 0.03 0.04 0.05 0.04 0.04 0.04 0.03 0.03 0.05 0.05 0.04 0.05 0.03 0.02 0.01 0.02 0.02 0.02 0.04 0.06 0.08 0.09 0.11 0.10 0.07 0.04 0.03 0.02 0.03 0.03 0.02 0.02 0.01 0.01 0.01 0.01 0.01 0.02 0.04 0.05
0.01 0.01 0.02 0.02 0.03 0.04 0.04 0.05 0.04 0.03 0.02 0.03 0.04 0.04 0.04 0.04 0.02 0.02 0.02 0.02 0.02 0.02 0.03 0.06 0.08 0.09 0.08 0.06 0.04 0.03 0.02 0.02 0.02 0.02 0.02 0.02 0.01 0.01 0.01 0.01 0.01 0.02 0.03
0.01 0.01 0.02 0.03 0.03 0.04 0.05 0.06 0.05 0.04 0.02 0.03 0.03 0.03 0.04 0.04 0.02 0.01 0.02 0.02 0.03 0.02 0.02 0.03 0.05 0.08 0.08 0.06 0.03 0.02 0.02 0.02 0.02 0.02 0.02 0.02 0.01 0.01 0.01 0.01 0.01 0.01 0.02
0.01 0.01 0.02 0.02 0.02 0.03 0.04 0.06 0.07 0.06 0.05 0.06 0.05 0.04 0.04 0.04 0.03 0.02 0.01 0.01 0.02 0.02 0.02 0.03 0.03 0.04 0.06 0.07 0.05 0.03 0.02 0.02 0.03 0.03 0.02 0.01 0.01 0.02 0.02 0.01 0.01 0.01 0.01
0.00 0.01 0.01 0.02 0.02 0.02 0.03 0.04 0.06 0.07 0.08 0.08 0.07 0.05 0.05 0.05 0.03 0.03 0.03 0.02 0.02 0.02 0.02 0.03 0.03 0.03 0.04 0.06 0.07 0.05 0.04 0.03 0.03 0.04 0.03 0.02 0.01 0.01 0.02 0.02 0.01 0.01 0.01
0.00 0.00 0.01 0.01 0.02 0.02 0.02 0.03 0.03 0.05 0.09 0.10 0.09 0.06 0.05 0.05 0.04 0.04 0.04 0.03 0.02 0.02 0.02 0.02 0.03 0.03 0.04 0.06 0.07 0.06 0.04 0.06 0.06 0.04 0.04 0.03 0.03 0.01 0.01 0.01 0.01 0.01 0.01
0.00 0.00 0.00 0.01 0.01 0.02 0.02 0.02 0.02 0.03 0.04 0.08 0.11 0.09 0.06 0.05 0.05 0.05 0.04 0.04 0.03 0.02 0.02 0.03 0.03 0.03 0.03 0.05 0.05 0.06 0.04 0.03 0.04 0.05 0.05 0.04 0.04 0.04 0.02 0.01 0.01 0.02 0.02
0.00 0.00 0.00 0.00 0.01 0.01 0.02 0.03 0.02 0.03 0.04 0.04 0.06 0.07 0.05 0.04 0.04 0.04 0.05 0.05 0.04 0.03 0.03 0.03 0.03 0.04 0.04 0.04 0.05 0.05 0.04 0.03 0.02 0.03 0.04 0.04 0.04 0.04 0.03 0.02 0.01 0.01 0.02
0.00 0.00 0.00 0.00 0.00 0.01 0.02 0.02 0.03 0.03 0.04 0.05 0.05 0.05 0.05 0.05 0.05 0.04 0.03 0.04 0.05 0.05 0.04 0.05 0.04 0.04 0.04 0.05 0.05 0.04 0.04 0.03 0.02 0.02 0.03 0.04 0.05 0.05 0.04 0.03 0.02 0.01 0.02
0.00 0.00 0.00 0.00 0.00 0.01 0.01 0.02 0.02 0.03 0.04 0.05 0.06 0.07 0.07 0.06 0.05 0.05 0.04 0.03 0.04 0.05 0.05 0.05 0.05 0.05 0.05 0.05 0.05 0.05 0.03 0.03 0.03 0.03 0.03 0.04 0.04 0.04 0.04 0.04 0.03 0.02 0.01
MSLP
1022.03 1021.93 1021.81 1021.71 1021.65 1021.64 1021.63 1021.59 1021.47 1021.27 1020.99 1020.68 1020.36 1020.09 1019.88 1019.73 1019.64 1019.57 1019.50 1019.41 1019.30 1019.18 1019.07 1019.00 1018.97 1018.98 1019.01 1019.04 1019.04 1019.01 1018.92 1018.81 1018.69 1018.58 1018.51 1018.46 1018.44 1018.42 1018.38 1018.32 1018.21 1018.08 1017.95
1022.15 1022.05 1021.96 1021.90 1021.90 1021.92 1021.94 1021.91 1021.80 1021.59 1021.32 1021.02 1020.73 1020.51 1020.35 1020.27 1020.23 1020.21 1020.16 1020.09 1019.98 1019.85 1019.74 1019.65 1019.61 1019.61 1019.62 1019.60 1019.55 1019.44 1019.29 1019.11 1018.92 1018.78 1018.68 1018.64 1018.65 1018.66 1018.66 1018.62 1018.54 1018.41 1018.26
1022.28 1022.19 1022.12 1022.10 1022.14 1022.20 1022.25 1022.23 1022.12 1021.93 1021.68 1021.41 1021.18 1021.01 1020.92 1020.89 1020.89 1020.88 1020.84 1020.74 1020.61 1020.46 1020.32 1020.22 1020.17 1020.14 1020.12 1020.08 1019.97 1019.81 1019.59 1019.34 1019.11 1018.93 1018.83 1018.80 1018.83 1018.88 1018.92 1018.91 1018.85 1018.73 1018.59
1022.41 1022.34 1022.30 1022.33 1022.42 1022.52 1022.59 1022.59 1022.49 1022.32 1022.10 1021.87 1021.69 1021.57 1021.53 1021.53 1021.54 1021.53 1021.46 1021.33 1021.16 1020.97 1020.80 1020.68 1020.61 1020.57 1020.53 1020.46 1020.32 1020.11 1019.84 1019.55 1019.28 1019.08 1018.97 1018.95 1019.00 1019.08 1019.16 1019.18 1019.15 1019.04 1018.91
1022.56 1022.52 1022.53 1022.62 1022.75 1022.89 1022.98 1023.00 1022.92 1022.77 1022.57 1022.38 1022.24 1022.16 1022.14 1022.15 1022.16 1022.12 1022.01 1021.83 1021.61 1021.39 1021.19 1021.05 1020.96 1020.91 1020.87 1020.78 1020.62 1020.38 1020.09 1019.77 1019.47 1019.26 1019.14 1019.12 1019.18 1019.28 1019.38 1019.43 1019.41 1019.33 1019.21
1022.75 1022.75 1022.82 1022.96 1023.14 1023.32 1023.43 1023.46 1023.39 1023.25 1023.07 1022.90 1022.77 1022.71 1022.71 1022.71 1022.70 1022.63 1022.47 1022.26 1022.00 1021.74 1021.52 1021.37 1021.28 1021.23 1021.19 1021.09 1020.92 1020.67 1020.35 1020.02 1019.71 1019.48 1019.35 1019.33 1019.39 1019.48 1019.58 1019.64 1019.64 1019.57 1019.47
1023.00 1023.04 1023.16 1023.35 1023.58 1023.78 1023.90 1023.93 1023.86 1023.71 1023.53 1023.37 1023.25 1023.20 1023.19 1023.19 1023.15 1023.05 1022.87 1022.62 1022.34 1022.08 1021.86 1021.71 1021.62 1021.57 1021.52 1021.42 1021.24 1020.98 1020.66 1020.31 1019.99 1019.75 1019.61 1019.57 1019.61 1019.69 1019.77 1019.81 1019.81 1019.76 1019.68
1023.34 1023.40 1023.55 1023.77 1024.01 1024.22 1024.34 1024.35 1024.27 1024.11 1023.92 1023.76 1023.64 1023.59 1023.58 1023.56 1023.52 1023.40 1023.21 1022.96 1022.69 1022.43 1022.22 1022.08 1022.00 1021.96 1021.90 1021.79 1021.60 1021.32 1020.99 1020.64 1020.32 1020.07 1019.92 1019.85 1019.86 1019.90 1019.94 1019.96 1019.94 1019.88 1019.82
1023.78 1023.83 1023.98 1024.19 1024.42 1024.60 1024.69 1024.68 1024.57 1024.40 1024.21 1024.05 1023.94 1023.89 1023.88 1023.87 1023.82 1023.71 1023.52 1023.29 1023.04 1022.80 1022.62 1022.50 1022.42 1022.37 1022.29 1022.16 1021.95 1021.67 1021.33 1020.98 1020.67 1020.42 1020.25 1020.16 1020.13 1020.12 1020.11 1020.08 1020.02 1019.95 1019.89
1024.33 1024.33 1024.43 1024.60 1024.77 1024.90 1024.95 1024.90 1024.77 1024.59 1024.41 1024.27 1024.17 1024.14 1024.14 1024.13 1024.09 1023.99 1023.83 1023.62 1023.40 1023.19 1023.03 1022.92 1022.84 1022.77 1022.67 1022.51 1022.28 1021.98 1021.64 1021.30 1021.00 1020.76 1020.59 1020.48 1020.42 1020.36 1020.30 1020.20 1020.10 1019.99 1019.91
1024.97 1024.89 1024.91 1024.99 1025.08 1025.13 1025.12 1025.04 1024.89 1024.73 1024.57 1024.46 1024.40 1024.39 1024.40 1024.41 1024.37 1024.28 1024.13 1023.94 1023.74 1023.56 1023.41 1023.30 1023.21 1023.11 1022.98 1022.79 1022.53 1022.22 1021.89 1021.57 1021.29 1021.07 1020.92 1020.81 1020.72 1020.62 1020.50 1020.34 1020.18 1020.02 1019.90
1025.69 1025.51 1025.42 1025.39 1025.37 1025.34 1025.26 1025.15 1025.01 1024.87 1024.76 1024.70 1024.68 1024.71 1024.73 1024.74 1024.69 1024.59 1024.44 1024.25 1024.06 1023.88 1023.74 1023.61 1023.50 1023.37 1023.20 1022.97 1022.69 1022.38 1022.06 1021.76 1021.52 1021.34 1021.22 1021.12 1021.02 1020.89 1020.72 1020.51 1020.28 1020.07 1019.91
1026.48 1026.20 1025.99 1025.84 1025.71 1025.58 1025.45 1025.31 1025.19 1025.10 1025.05 1025.05 1025.09 1025.14 1025.17 1025.16 1025.09 1024.95 1024.77 1024.56 1024.35 1024.15 1023.99 1023.84 1023.70 1023.53 1023.32 1023.06 1022.76 1022.45 1022.15 1021.89 1021.69 1021.56 1021.47 1021.40 1021.30 1021.16 1020.96 1020.71 1020.42 1020.16 1019.95
1027.32 1026.95 1026.64 1026.36 1026.12 1025.92 1025.74 1025.60 1025.52 1025.48 1025.51 1025.57 1025.65 1025.72 1025.74 1025.69 1025.57 1025.38 1025.13 1024.87 1024.62 1024.39 1024.20 1024.02 1023.84 1023.64 1023.39 1023.10 1022.78 1022.47 1022.18 1021.95 1021.79 1021.70 1021.65 1021.61 1021.54 1021.40 1021.19 1020.91 1020.59 1020.29 1020.03
1028.19 1027.77 1027.36 1026.99 1026.67 1026.40 1026.19 1026.07 1026.02 1026.05 1026.14 1026.27 1026.38 1026.45 1026.44 1026.34 1026.14 1025.87 1025.55 1025.23 1024.92 1024.65 1024.41 1024.20 1023.99 1023.74 1023.46 1023.14 1022.80 1022.47 1022.18 1021.96 1021.82 1021.76 1021.75 1021.74 1021.69 1021.57 1021.37 1021.09 1020.77 1020.45 1020.17
1029.07 1028.62 1028.16 1027.73 1027.35 1027.04 1026.83 1026.72 1026.72 1026.80 1026.95 1027.11 1027.24 1027.29 1027.24 1027.07 1026.80 1026.44 1026.05 1025.66 1025.30 1024.98 1024.71 1024.47 1024.21 1023.93 1023.61 1023.25 1022.87 1022.50 1022.18 1021.94 1021.80 1021.74 1021.74 1021.75 1021.72 1021.64 1021.47 1021.22 1020.92 1020.62 1020.34
1029.95 1029.49 1029.02 1028.56 1028.15 1027.83 1027.62 1027.54 1027.57 1027.70 1027.88 1028.06 1028.18 1028.20 1028.10 1027.86 1027.52 1027.09 1026.64 1026.20 1025.80 1025.45 1025.16 1024.88 1024.59 1024.27 1023.90 1023.47 1023.03 1022.60 1022.23 1021.93 1021.75 1021.65 1021.63 1021.64 1021.64 1021.58 1021.46 1021.27 1021.02 1020.76 1020.52
1030.78 1030.36 1029.89 1029.44 1029.03 1028.72 1028.53 1028.47 1028.52 1028.67 1028.86 1029.03 1029.13 1029.11 1028.96 1028.67 1028.28 1027.81 1027.32 1026.86 1026.45 1026.09 1025.77 1025.47 1025.15 1024.78 1024.35 1023.85 1023.33 1022.81 1022.34 1021.96 1021.69 1021.53 1021.46 1021.45 1021.44 1021.42 1021.35 1021.23 1021.06 1020.87 1020.68
1031.57 1031.19 1030.76 1030.34 1029.96 1029.67 1029.50 1029.45 1029.52 1029.66 1029.84 1029.98 1030.04 1029.99 1029.79 1029.47 1029.06 1028.58 1028.10 1027.64 1027.24 1026.88 1026.56 1026.24 1025.89 1025.47 1024.96 1024.39 1023.77 1023.15 1022.57 1022.07 1021.69 1021.44 1021.29 1021.23 1021.21 1021.20 1021.17 1021.11 1021.03 1020.92 1020.80
1032.29 1031.97 1031.59 1031.22 1030.88 1030.63 1030.48 1030.45 1030.51 1030.63 1030.77 1030.87 1030.89 1030.79 1030.57 1030.24 1029.83 1029.38 1028.93 1028.51 1028.13 1027.80 1027.48 1027.15 1026.76 1026.29 1025.72 1025.06 1024.34 1023.61 1022.92 1022.31 1021.81 1021.44 1021.20 1021.06 1021.00 1020.98 1020.98 1020.97 1020.95 1020.91 1020.87
1032.95 1032.69 1032.38 1032.07 1031.79 1031.58 1031.45 1031.42 1031.46 1031.55 1031.63 1031.68 1031.65 1031.52 1031.28 1030.96 1030.58 1030.17 1029.77 1029.40 1029.07 1028.76 1028.46 1028.11 1027.69 1027.18 1026.55 1025.83 1025.04 1024.22 1023.43 1022.71 1022.10 1021.62 1021.27 1021.04 1020.91 1020.85 1020.84 1020.84 1020.86 1020.87 1020.87
1033.55 1033.35 1033.11 1032.87 1032.65 1032.48 1032.38 1032.35 1032.36 1032.40 1032.43 1032.41 1032.33 1032.17 1031.93 1031.62 1031.28 1030.93 1030.59 1030.27 1029.98 1029.70 1029.40 1029.05 1028.61 1028.06 1027.40 1026.65 1025.81 1024.95 1024.10 1023.31 1022.61 1022.03 1021.57 1021.24 1021.02 1020.88 1020.82 1020.79 1020.79 1020.81 1020.82
1034.07 1033.94 1033.78 1033.61 1033.45 1033.33 1033.25 1033.21 1033.19 1033.18 1033.15 1033.07 1032.94 1032.75 1032.50 1032.22 1031.91 1031.61 1031.32 1031.05 1030.80 1030.53 1030.24 1029.88 1029.43 1028.88 1028.22 1027.47 1026.64 1025.78 1024.92 1024.10 1023.35 1022.70 1022.15 1021.71 1021.37 1021.13 1020.96 1020.85 1020.79 1020.76 1020.74
1034.52 1034.45 1034.36 1034.26 1034.17 1034.09 1034.04 1033.99 1033.95 1033.89 1033.80 1033.67 1033.49 1033.27 1033.01 1032.74 1032.46 1032.19 1031.94 1031.70 1031.46 1031.20 1030.90 1030.54 1030.10 1029.57 1028.94 1028.24 1027.47 1026.66 1025.85 1025.05 1024.29 1023.59 1022.97 1022.42 1021.96 1021.58 1021.28 1021.05 1020.88 1020.75 1020.66
1034.86 1034.86 1034.83 1034.80 1034.77 1034.74 1034.71 1034.67 1034.60 1034.50 1034.36 1034.18 1033.96 1033.71 1033.44 1033.17 1032.90 1032.65 1032.41 1032.18 1031.94 1031.68 1031.37 1031.02 1030.59 1030.10 1029.54 1028.91 1028.24 1027.53 1026.80 1026.07 1025.34 1024.63 1023.95 1023.31 1022.72 1022.20 1021.74 1021.36 1021.04 1020.80 1020.60
1035.07 1035.13 1035.17 1035.21 1035.23 1035.24 1035.24 1035.20 1035.12 1034.99 1034.81 1034.59 1034.33 1034.06 1033.78 1033.50 1033.24 1032.99 1032.75 1032.51 1032.25 1031.97 1031.66 1031.30 1030.90 1030.46 1029.97 1029.45 1028.90 1028.31 1027.69 1027.05 1026.37 1025.68 1024.96 1024.25 1023.56 1022.90 1022.30 1021.76 1021.30 1020.91 1020.60
Thickness
5699 5699 5697 5696 5696 5696 5695 5695 5695 5695 5695 5695 5695 5695 5696 5696 5696 5697 5697 5698 5699 5699 5700 5701 5701 5702 5702 5702 5702 5703 5703 5704 5704 5704 5704 5705 5705 5706 5706 5706 5706 5706 5706
5698 5696 5694 5693 5692 5692 5691 5691 5691 5690 5691 5691 5691 5691 5691 5692 5692 5692 5693 5694 5695 5695 5696 5697 5697 5698 5698 5698 5698 5699 5699 5700 5701 5701 5701 5701 5702 5702 5702 5703 5703 5703 5702
5695 5692 5690 5689 5688 5687 5687 5687 5686 5686 5686 5686 5687 5687 5687 5687 5688 5688 5689 5689 5690 5691 5691 5692 5693 5693 5693 5694 5694 5695 5696 5697 5697 5698 5698 5698 5698 5698 5699 5699 5699 5699 5699
5691 5688 5686 5684 5684 5683 5682 5682 5681 5681 5681 5681 5682 5682 5682 5682 5683 5683 5684 5684 5685 5686 5686 5687 5688 5688 5689 5689 5690 5691 5692 5693 5694 5695 5695 5695 5695 5694 5695 5695 5696 5696 5695
5686 5683 5681 5679 5679 5678 5678 5677 5676 5676 5676 5676 5676 5676 5677 5678 5678 5678 5679 5679 5680 5680 5681 5682 5683 5684 5684 5685 5686 5687 5688 5689 5690 5691 5692 5691 5691 5691 5691 5692 5692 5692 5692
5680 5678 5675 5674 5673 5673 5672 5671 5671 5671 5671 5671 5671 5671 5672 5673 5673 5673 5674 5674 5675 5676 5677 5678 5678 5679 5680 5680 5682 5683 5684 5685 5686 5687 5688 5688 5687 5687 5687 5687 5687 5688 5688
5673 5672 5669 5668 5668 5667 5666 5666 5665 5665 5665 5665 5665 5666 5667 5667 5668 5668 5669 5669 5670 5671 5672 5673 5673 5674 5675 5676 5677 5678 5679 5681 5682 5683 5684 5683 5683 5683 5683 5683 5683 5684 5683
5666 5665 5663 5662 5661 5661 5660 5660 5659 5659 5659 5659 5659 5660 5661 5661 5662 5663 5664 5664 5665 5666 5667 5667 5668 5669 5670 5670 5672 5673 5674 5676 5678 5679 5679 5679 5679 5679 5679 5679 5679 5679 5679
5660 5658 5656 5655 5654 5654 5653 5653 5653 5652 5652 5652 5653 5653 5654 5655 5656 5657 5658 5659 5660 5661 5661 5662 5663 5664 5664 5665 5667 5668 5670 5672 5673 5674 5674 5674 5675 5675 5675 5675 5675 5675 5675
5652 5651 5649 5648 5648 5647 5647 5646 5646 5646 5646 5646 5646 5647 5647 5649 5650 5651 5652 5653 5654 5655 5655 5656 5657 5658 5659 5660 5662 5663 5665 5667 5668 5669 5669 5669 5670 5670 5670 5670 5670 5670 5670
5643 5643 5642 5641 5641 5640 5640 5639 5639 5639 5639 5639 5639 5640 5640 5641 5643 5644 5645 5646 5647 5649 5649 5651 5651 5653 5654 5655 5657 5658 5660 5661 5663 5663 5664 5664 5665 5665 5665 5665 5666 5666 5665
5633 5634 5634 5634 5633 5633 5632 5632 5632 5631 5631 5631 5631 5632 5633 5634 5635 5637 5638 5639 5641 5642 5643 5644 5646 5647 5649 5650 5652 5653 5654 5656 5657 5658 5658 5659 5660 5660 5660 5660 5661 5661 5661
5625 5625 5625 5625 5625 5625 5624 5624 5624 5623 5623 5623 5623 5624 5625 5626 5627 5628 5630 5631 5633 5635 5636 5638 5639 5641 5643 5645 5646 5648 5649 5651 5652 5652 5652 5653 5654 5654 5655 5655 5655 5655 5655
5617 5617 5617 5617 5616 5616 5616 5615 5615 5615 5614 5614 5614 5614 5616 5617 5618 5620 5622 5623 5625 5627 5629 5631 5633 5635 5637 5639 5641 5642 5643 5644 5646 5646 5647 5647 5648 5649 5649 5649 5650 5650 5650
5608 5608 5608 5608 5607 5606 5606 5606 5606 5605 5605 5605 5605 5605 5606 5607 5609 5611 5613 5615 5617 5619 5622 5624 5625 5628 5630 5632 5634 5636 5637 5638 5639 5640 5640 5641 5642 5643 5644 5644 5645 5645 5645
5598 5598 5598 5598 5598 5597 5596 5595 5595 5595 5595 5595 5595 5596 5596 5597 5599 5601 5604 5606 5608 5611 5613 5616 5618 5620 5622 5624 5626 5628 5629 5631 5633 5633 5634 5635 5636 5637 5637 5638 5639 5639 5640
5587 5587 5588 5588 5587 5586 5585 5585 5584 5584 5584 5585 5585 5586 5587 5588 5589 5591 5593 5596 5599 5601 5604 5607 5609 5611 5613 5615 5617 5620 5622 5624 5625 5626 5627 5628 5629 5630 5631 5632 5633 5633 5634
5575 5575 5575 5575 5575 5574 5573 5573 5573 5573 5573 5574 5574 5575 5576 5578 5579 5581 5583 5585 5588 5591 5594 5597 5599 5601 5603 5605 5607 5611 5613 5616 5618 5619 5621 5621 5622 5623 5624 5625 5626 5627 5627
5563 5562 5562 5562 5562 5561 5561 5561 5561 5561 5561 5562 5562 5563 5565 5567 5568 5570 5572 5575 5577 5580 5583 5586 5588 5591 5593 5595 5598 5601 5604 5607 5609 5611 5613 5614 5615 5616 5617 5618 5619 5620 5620
5550 5550 5549 5549 5548 5548 5548 5548 5548 5548 5548 5549 5550 5551 5552 5554 5557 5559 5561 5563 5566 5569 5572 5575 5577 5579 5582 5585 5589 5591 5594 5597 5600 5602 5604 5606 5607 5608 5609 5611 5612 5612 5613
5537 5536 5535 5534 5534 5533 5533 5533 5533 5534 5535 5535 5536 5538 5539 5542 5544 5547 5549 5552 5555 5557 5560 5563 5565 5567 5570 5574 5576 5578 5582 5587 5590 5592 5594 5596 5598 5600 5602 5603 5604 5605 5605
5522 5521 5520 5519 5519 5518 5518 5519 5519 5520 5521 5523 5523 5525 5527 5530 5532 5535 5537 5540 5543 5545 5548 5551 5553 5555 5557 5561 5563 5565 5568 5573 5578 5582 5584 5587 5589 5591 5593 5595 5596 5597 5598
5507 5506 5506 5505 5505 5504 5504 5505 5506 5507 5508 5509 5510 5512 5514 5517 5520 5522 5525 5528 5531 5534 5536 5539 5541 5544 5546 5549 5553 5555 5557 5561 5563 5569 5573 5576 5579 5581 5583 5585 5587 5589 5590
5494 5493 5492 5492 5491 5491 5491 5491 5491 5492 5493 5495 5497 5499 5502 5505 5508 5510 5513 5516 5519 5522 5524 5527 5530 5533 5535 5538 5542 5545 5549 5552 5552 5555 5560 5564 5569 5571 5574 5576 5577 5579 5582
5481 5479 5478 5478 5478 5478 5477 5477 5477 5478 5480 5482 5484 5486 5490 5493 5495 5497 5500 5503 5506 5510 5513 5516 5519 5522 5524 5527 5531 5534 5537 5540 5544 5545 5548 5552 5556 5560 5564 5566 5568 5571 5573
5467 5465 5464 5464 5463 5463 5463 5463 5464 5465 5466 5469 5471 5474 5477 5480 5483 5485 5487 5490 5493 5497 5501 5504 5507 5510 5514 5517 5520 5523 5526 5529 5532 5535 5537 5540 5544 5549 5553 5556 5559 5561 5563